Waarnemingen

Advertentie
Mijn weer
Semmerzake, België (6428): temperatuur & dauwpunt: 03.12.2019 23:00:00 - 09.12.2019 23:00:00 (CET)Semmerzake, België (6428): windsnelheid & windstoten: 03.12.2019 23:00:00 - 09.12.2019 23:00:00 (CET)Semmerzake, België (6428): windrichting: 03.12.2019 23:00:00 - 09.12.2019 23:00:00 (CET)Semmerzake, België (6428): luchtdruk: 03.12.2019 23:00:00 - 09.12.2019 23:00:00 (CET)Semmerzake, België (6428): zicht: 03.12.2019 23:00:00 - 09.12.2019 23:00:00 (CET)
Datum & Tijd tt [°C] td [°C] ff [km/u] ff [kn] fx [km/u] fx [kn] dd ppp [hPa] vv [km]
09.12.2019 23:00:00 4,7 2,4 11 6 29 16 NNW 1023,1 20
09.12.2019 22:00:00 5,4 2,7 7 4 - - WNW 1022,2 8
09.12.2019 21:00:00 5,6 2,7 11 6 29 16 WNW 1021,1 13
09.12.2019 20:00:00 6,0 2,1 18 10 40 21 NW 1019,3 17
09.12.2019 19:00:00 6,5 2,5 14 8 - - NW 1017,5 13
09.12.2019 18:00:00 6,7 3,2 22 12 47 25 NNW 1015,6 12
09.12.2019 17:00:00 7,0 3,0 25 14 68 37 NNW 1013,0 13
09.12.2019 16:00:00 6,4 4,8 25 14 - - NNW 1010,5 10
09.12.2019 15:00:00 6,8 3,2 25 14 68 37 NW 1007,7 20
09.12.2019 14:00:00 7,1 4,0 29 16 58 31 NW 1005,8 6
09.12.2019 13:00:00 7,9 4,3 25 14 - - WNW 1004,2 18
09.12.2019 12:00:00 8,1 5,0 22 12 36 19 WNW 1002,7 6
09.12.2019 11:00:00 7,8 5,6 14 8 29 16 WNW 1001,2 9
09.12.2019 10:00:00 7,1 5,2 11 6 - - W 999,5 9
09.12.2019 09:00:00 7,3 4,1 14 8 29 16 WZW 997,8 18
09.12.2019 08:00:00 7,5 4,2 14 8 32 18 WZW 996,5 20
09.12.2019 07:00:00 7,5 4,4 22 12 - - WZW 995,2 20
09.12.2019 06:00:00 6,8 5,6 25 14 54 29 ZW 993,9 7
09.12.2019 05:00:00 6,5 5,0 36 19 54 29 ZZW 993,2 6
09.12.2019 04:00:00 6,5 4,2 36 19 - - ZZW 994,5 10
09.12.2019 03:00:00 6,6 4,1 29 16 50 27 ZZW 996,1 20
09.12.2019 02:00:00 6,5 4,2 25 14 47 25 ZZW 997,2 14
09.12.2019 01:00:00 7,0 3,8 25 14 - - ZZW 998,1 19
09.12.2019 00:00:00 6,6 4,2 25 14 47 25 ZZW 999,1 18
08.12.2019 23:00:00 6,8 4,2 22 12 36 19 ZZW 999,5 15
08.12.2019 22:00:00 7,1 3,7 18 10 - - ZW 1000,2 19
08.12.2019 21:00:00 7,1 4,5 18 10 43 23 ZZW 1000,2 20
08.12.2019 20:00:00 7,5 4,5 25 14 61 33 ZW 1000,6 20
08.12.2019 19:00:00 8,0 5,7 22 12 - - ZW 1000,8 19
08.12.2019 18:00:00 9,5 5,1 18 10 43 23 ZW 1001,3 16
08.12.2019 17:00:00 9,7 5,1 18 10 36 19 ZW 1001,5 13
08.12.2019 16:00:00 10,3 4,4 22 12 - - ZW 1002,2 13
08.12.2019 15:00:00 10,8 4,7 22 12 50 27 ZW 1002,5 12
08.12.2019 14:00:00 11,1 4,8 25 14 47 25 WZW 1003,1 12
08.12.2019 13:00:00 11,3 6,3 25 14 - - WZW 1003,3 15
08.12.2019 12:00:00 11,0 6,7 29 16 50 27 WZW 1003,5 16
08.12.2019 11:00:00 10,1 9,2 22 12 50 27 ZW 1003,2 20
08.12.2019 10:00:00 10,0 8,7 32 18 - - ZZW 1002,6 7
08.12.2019 09:00:00 9,3 8,1 36 19 54 29 ZZW 1002,8 20
08.12.2019 08:00:00 9,0 7,8 36 19 61 33 ZZW 1003,7 4,6
08.12.2019 07:00:00 8,7 7,5 36 19 - - ZZW 1003,8 8
08.12.2019 06:00:00 9,7 7,0 29 16 50 27 ZZW 1005,6 18
08.12.2019 05:00:00 9,6 7,0 32 18 50 27 ZZW 1006,1 20
08.12.2019 04:00:00 9,3 6,8 25 14 - - ZZW 1007,7 20
08.12.2019 03:00:00 9,2 6,1 25 14 43 23 ZZW 1009,0 20
08.12.2019 02:00:00 9,3 5,6 25 14 47 25 ZZW 1010,0 20
08.12.2019 01:00:00 9,2 5,3 22 12 - - ZZW 1011,2 20
08.12.2019 00:00:00 9,3 6,2 18 10 36 19 ZZW 1012,7 20
07.12.2019 23:00:00 9,5 6,2 22 12 36 19 ZZW 1013,3 20
07.12.2019 22:00:00 9,5 6,0 22 12 - - ZZW 1014,1 20
07.12.2019 21:00:00 9,2 6,2 22 12 29 16 ZZW 1014,7 20
07.12.2019 20:00:00 9,0 6,7 14 8 25 14 ZZW 1015,1 18
07.12.2019 19:00:00 9,0 5,9 14 8 - - ZZW 1015,7 19
07.12.2019 18:00:00 9,1 5,2 11 6 22 12 ZZW 1015,6 20
07.12.2019 17:00:00 9,2 5,1 7 4 18 10 ZW 1015,6 20
07.12.2019 16:00:00 9,5 4,7 11 6 - - ZW 1015,3 20
07.12.2019 15:00:00 10,1 3,9 14 8 32 18 WZW 1015,2 20
07.12.2019 14:00:00 10,1 5,0 18 10 25 14 WZW 1015,5 20
07.12.2019 13:00:00 9,8 5,2 14 8 - - ZW 1015,2 20
07.12.2019 12:00:00 9,1 5,8 11 6 22 12 ZW 1015,3 20
07.12.2019 11:00:00 9,3 4,7 14 8 22 12 WZW 1015,3 20
07.12.2019 10:00:00 8,8 5,1 14 8 - - WZW 1014,7 20
07.12.2019 09:00:00 8,6 5,5 14 8 22 12 ZW 1014,3 19
07.12.2019 08:00:00 8,5 5,9 11 6 22 12 ZW 1013,7 19
07.12.2019 07:00:00 8,6 6,1 11 6 - - WZW 1013,1 19
07.12.2019 06:00:00 8,6 6,2 11 6 22 12 WZW 1012,5 18
07.12.2019 05:00:00 9,0 6,2 11 6 25 14 W 1012,1 18
07.12.2019 04:00:00 9,2 6,2 14 8 - - WZW 1011,3 20
07.12.2019 03:00:00 9,5 6,3 14 8 32 18 WZW 1010,6 20
07.12.2019 02:00:00 9,6 6,5 18 10 29 16 WZW 1009,8 19
07.12.2019 01:00:00 9,7 6,5 14 8 - - W 1009,2 20
07.12.2019 00:00:00 9,8 7,0 18 10 36 19 W 1008,3 19
06.12.2019 23:00:00 9,6 8,4 14 8 32 18 ZW 1007,5 16
06.12.2019 22:00:00 9,1 8,3 18 10 - - ZW 1006,6 11
06.12.2019 21:00:00 8,6 7,8 25 14 50 27 ZW 1005,8 9
06.12.2019 20:00:00 8,4 7,4 29 16 58 31 ZZW 1005,5 14
06.12.2019 19:00:00 7,5 6,8 32 18 - - ZZW 1005,5 4,4
06.12.2019 18:00:00 7,4 6,2 29 16 50 27 ZZW 1005,7 19
06.12.2019 17:00:00 7,3 6,1 25 14 50 27 ZZW 1006,2 18
06.12.2019 16:00:00 6,9 6,0 29 16 - - ZZW 1006,7 6
06.12.2019 15:00:00 6,8 5,9 32 18 47 25 ZZW 1007,3 13
06.12.2019 14:00:00 6,3 5,4 25 14 47 25 ZZW 1008,5 6
06.12.2019 13:00:00 5,4 4,9 25 14 - - Z 1009,7 5
06.12.2019 12:00:00 5,0 4,4 29 16 47 25 ZZW 1010,8 4,7
06.12.2019 11:00:00 4,1 3,6 29 16 47 25 ZZW 1011,7 5
06.12.2019 10:00:00 3,7 2,9 25 14 - - ZZW 1012,5 5
06.12.2019 09:00:00 3,2 2,8 25 14 43 23 ZZW 1012,7 3,6
06.12.2019 08:00:00 3,0 2,5 25 14 40 21 ZZW 1013,2 3,6
06.12.2019 07:00:00 2,7 2,0 29 16 - - ZZW 1013,7 3,6
06.12.2019 06:00:00 2,9 1,9 22 12 43 23 ZZW 1013,7 5
06.12.2019 05:00:00 2,7 1,9 25 14 50 27 ZZW 1014,2 4,1
06.12.2019 04:00:00 2,5 1,5 25 14 - - ZZW 1015,2 4,7
06.12.2019 03:00:00 2,2 1,5 29 16 47 25 ZZW 1015,8 3,9
06.12.2019 02:00:00 2,0 1,4 25 14 40 21 ZZW 1016,5 3,4
06.12.2019 01:00:00 1,4 1,1 25 14 - - Z 1016,8 2,7
06.12.2019 00:00:00 1,5 1,0 25 14 43 23 ZZW 1018,1 3,6
05.12.2019 23:00:00 1,1 0,7 29 16 40 21 ZZW 1018,6 2,5
05.12.2019 22:00:00 1,1 0,6 22 12 - - ZZW 1019,1 2,9
05.12.2019 21:00:00 0,8 0,5 18 10 36 19 ZZW 1019,3 2,7
05.12.2019 20:00:00 1,0 1,0 22 12 32 18 ZZW 1019,7 2,6
05.12.2019 19:00:00 1,5 1,5 14 8 - - Z 1020,2 1,3
05.12.2019 18:00:00 1,5 1,5 18 10 29 16 Z 1020,6 0,5
05.12.2019 17:00:00 1,4 1,4 18 10 25 14 ZZW 1021,0 0,3
05.12.2019 16:00:00 1,0 0,8 14 8 - - ZZW 1021,6 0,8
05.12.2019 15:00:00 1,1 0,6 11 6 22 12 ZW 1021,7 2,9
05.12.2019 14:00:00 0,9 0,5 11 6 22 12 ZW 1022,0 2,1
05.12.2019 13:00:00 1,8 0,7 14 8 - - ZZW 1022,1 3,0
05.12.2019 12:00:00 1,6 0,7 11 6 18 10 ZZW 1022,2 2,8
05.12.2019 11:00:00 0,5 0,0 7 4 18 10 Z 1022,6 2,1
05.12.2019 10:00:00 0,1 -0,6 14 8 - - ZZW 1022,7 2,8
05.12.2019 09:00:00 - - - - - - - - -
05.12.2019 08:00:00 -1,2 -1,7 11 6 14 8 Z 1022,1 2,5
05.12.2019 07:00:00 -1,5 -2,0 7 4 - - Z 1021,7 2,7
05.12.2019 06:00:00 -0,7 -1,1 7 4 14 8 ZZW 1021,5 3,2
05.12.2019 05:00:00 -1,0 -1,5 7 4 11 6 ZW 1021,7 3,3
05.12.2019 04:00:00 -1,2 -1,7 7 4 - - ZZW 1021,7 3,0
05.12.2019 03:00:00 -0,6 -1,2 7 4 7 4 ZZW 1021,2 4,6
05.12.2019 02:00:00 -1,2 -1,5 7 4 7 4 ZZW 1021,2 3,5
05.12.2019 01:00:00 -1,3 -1,5 4 2 - - N 1021,3 2,5
05.12.2019 00:00:00 -0,2 -0,7 4 2 4 2 N 1021,2 3,1
04.12.2019 23:00:00 -0,9 -1,2 4 2 7 4 N 1021,3 2,1
04.12.2019 22:00:00 -0,3 -0,8 4 2 - - N 1021,2 3,0
04.12.2019 21:00:00 0,6 -0,2 4 2 7 4 N 1021,5 2,9
04.12.2019 20:00:00 0,8 -0,1 4 2 4 2 N 1021,0 5
04.12.2019 19:00:00 1,6 0,1 4 2 - - N 1020,8 6
04.12.2019 18:00:00 2,7 0,3 4 2 11 6 N 1021,1 11
04.12.2019 17:00:00 4,5 0,4 4 2 4 2 N 1020,5 17
04.12.2019 16:00:00 5,8 0,3 4 2 - - N 1020,6 15
04.12.2019 15:00:00 6,5 0,3 4 2 4 2 N 1021,0 20
04.12.2019 14:00:00 7,4 1,4 4 2 7 4 N 1021,2 20
04.12.2019 13:00:00 6,5 1,0 4 2 - - N 1021,7 19
04.12.2019 12:00:00 4,9 1,3 4 2 11 6 N 1022,6 16
04.12.2019 11:00:00 3,2 1,0 7 4 11 6 ZO 1023,1 11
04.12.2019 10:00:00 1,6 0,4 4 2 - - N 1023,1 9
04.12.2019 09:00:00 0,1 -0,4 7 4 11 6 ZO 1023,2 6
04.12.2019 08:00:00 -0,3 -0,9 4 2 11 6 N 1023,2 4,3
04.12.2019 07:00:00 0,0 -0,4 7 4 - - OZO 1023,1 7
04.12.2019 06:00:00 -1,4 -1,5 4 2 4 2 N 1023,3 2,5
04.12.2019 05:00:00 -0,6 -0,8 4 2 4 2 N 1023,7 0,1
04.12.2019 04:00:00 -0,7 -0,7 4 2 - - N 1024,0 0,2
04.12.2019 03:00:00 0,4 0,2 4 2 7 4 N 1025,0 0,4
04.12.2019 02:00:00 0,0 -0,1 4 2 7 4 N 1025,2 1,1
04.12.2019 01:00:00 1,2 1,0 4 2 - - N 1025,7 2,1
04.12.2019 00:00:00 1,3 1,0 7 4 7 4 Z 1026,4 2,6
03.12.2019 23:00:00 1,3 0,6 4 2 7 4 N 1026,5 4,7

tt = temperatuur
td = dauwpunt
ff = windsnelheid
fx = windstoten
dd = windrichting
ppp = luchtdruk
vv = zicht

Weerstations in de omgeving